User: anonymous   Login
Location: *
(47.6569°N, 7.4256°E)
Time: 08:26:46
(UTC+00:00)
Language:

Cosmos 2151 Rocket - Orbit

View from above orbital plane
View from above orbital plane
View from above satellite
View from above satellite

Ground track
Ground track

The orbit data is extracted from the following two-line orbital elements,

1 21423U 91042B   20050.18306578  .00000090  00000-0  89552-5 0  9996
2 21423  82.4949 128.3881 0016134 291.8210  68.1286 14.79783002547063
Epoch (UTC): 19 February 2020 04:23:36
Eccentricity: 0.0016134
inclination: 82.4949°
perigee height: 619 km
apogee height: 641 km
right ascension of ascending node: 128.3881°
argument of perigee: 291.8210°
revolutions per day: 14.79783002
mean anomaly at epoch: 68.1286°
orbit number at epoch: 54706

The dashed part of the orbit path shows where the satellite is in the earth's shadow,  

DLR